Weather observations for the past three days for
Lafayette, Lafayette Regional Airport
Imperial (Metric)
Date Time (cdt) Wind (mph) Vis. (mi.) Weather Sky Cond. Temperature (ºF) Relative Humidity Wind Chill (°F) Heat Index (°F) Pressure Precipitation (in)
Air Dwpt 6 hour altimeter (in) sea level (mb) 1 hr 3 hr 6 hr
Max. Min.
19 10:53 Vrbl 5 10.00 Mostly Cloudy BKN007 82 75.9 82% 89 30.02 1016.5
19 09:53 Calm 10.00 Partly Cloudy FEW005 FEW027 SCT055 78.1 73.9 87% 81 30.03 1016.7 0.11 0.34
19 08:53 N 3 10.00 Light Rain BKN008 OVC012 78.1 73 85% 81 30.03 1016.9 0.01
19 07:53 NW 6 7.00 Light Rain FEW005 BKN040 OVC070 75.9 73 91% 76 30.01 1016.2 0.22
19 06:53 Calm 5.00 Rain Fog/Mist FEW022 BKN090 OVC110 75.9 72 78.1 75 88% 76 29.99 1015.5 0.09 0.1
19 05:53 SE 3 10.00 Mostly Cloudy FEW007 SCT070 BKN090 78.1 73.9 87% 81 29.97 1014.9 0.01
19 04:53 Calm 10.00 Mostly Cloudy BKN075 77 73.9 90% 78 29.98 1015.0
19 03:53 Calm 10.00 A Few Clouds FEW002 77 73.9 90% 78 29.98 1015.2
19 02:53 Calm 10.00 Mostly Cloudy BKN021 BKN027 77 73.9 90% 78 29.99 1015.3
19 01:53 Calm 10.00 Partly Cloudy FEW016 SCT026 77 73.9 90% 78 29.99 1015.4
19 00:53 Calm 10.00 Fair CLR 77 73 82 75.9 88% 78 30 1015.9
18 23:53 Calm 10.00 Fair CLR 77 73.9 90% 78 30.01 1016.1
18 22:53 Calm 10.00 Fair CLR 78.1 73.9 87% 81 30.01 1016.3
18 21:53 Calm 10.00 Fair CLR 78.1 73.9 87% 81 30 1015.9
18 20:53 Calm 10.00 Fair CLR 80.1 73.9 82% 85 29.99 1015.4
18 19:53 Calm 10.00 Fair CLR 81 73.9 79% 86 29.98 1015.0
18 18:53 Calm 10.00 Fair CLR 81 73 82 75.9 77% 86 29.98 1015.1
18 17:53 Calm 10.00 Fair CLR 81 73.9 79% 86 30 1015.7
18 16:53 E 3 10.00 Fair CLR 81 73 77% 86 29.99 1015.6
18 15:53 Vrbl 3 10.00 A Few Clouds FEW008 79 73.9 85% 83 30.02 1016.4
18 14:53 Vrbl 3 10.00 Fair CLR 78.1 73.9 87% 81 30 1015.9
18 13:53 Calm 10.00 Fair CLR 78.1 73.9 87% 81 30 1015.8
18 12:53 Calm 10.00 Thunderstorm in Vicinity Light Rain SCT110 75.9 73 90 75.9 91% 76 30.05 1017.7 0.02 0.8
18 11:53 N 10 9.00 Thunderstorm Light Rain SCT009 BKN065 OVC120 77 72 85% 78 30.06 1017.7 0.73
18 10:53 SW 22 G 26 5.00 Thunderstorm Light Rain and Breezy BKN016 82 73 74% 87 30.06 1017.7 0.05
18 09:53 Calm 10.00 Partly Cloudy SCT016 88 78.1 73% 102 30.02 1016.5
18 07:53 Calm 10.00 A Few Clouds FEW025 80.1 75 85% 85 30.04 1017.0
18 06:53 Calm 10.00 Fair CLR 75.9 73 78.1 75 91% 76 30.02 1016.5
18 05:53 Calm 10.00 Fair CLR 75.9 72 88% 76 30 1015.7
18 04:53 N 3 10.00 A Few Clouds FEW022 75 72 90% 74 29.99 1015.5
18 03:53 NW 3 10.00 Fair CLR 75.9 72 88% 76 29.99 1015.6
18 02:53 N 3 10.00 A Few Clouds FEW020 75 72 90% 74 29.99 1015.6
18 01:53 Calm 10.00 Fair CLR 77 73 88% 78 30 1015.9
18 00:53 Calm 10.00 Fair CLR 77 72 81 77 85% 78 30.01 1016.2
17 23:53 Calm 10.00 Fair CLR 77 73 88% 78 30.03 1016.9
17 22:53 Calm 10.00 Fair CLR 77 73.9 90% 78 30.05 1017.5
17 21:53 Calm 10.00 Fair CLR 78.1 73 85% 81 30.05 1017.5
17 20:53 Calm 10.00 Fair CLR 79 73 82% 82 30.02 1016.7
17 19:53 Vrbl 5 10.00 Fair CLR 80.1 75 85% 85 29.99 1015.4
17 18:53 SE 3 10.00 Fair CLR 80.1 73.9 80.1 75.9 82% 85 29.98 1015.1
17 17:53 Calm 10.00 Fair CLR 80.1 75 85% 85 29.99 1015.5
17 16:53 S 9 10.00 Fair CLR 80.1 73.9 82% 85 29.99 1015.6
17 15:53 Calm 10.00 Fair CLR 79 73.9 85% 83 30 1015.9
17 14:53 Calm 10.00 Light Rain SCT046 SCT100 78.1 71.1 79% 80 30.02 1016.4
17 13:53 E 3 10.00 Mostly Cloudy BKN110 77 72 85% 78 30.04 1017.0
17 12:53 E 6 10.00 Thunderstorm SCT055 BKN100 77 73 90 77 88% 78 30.05 1017.4 0.2 0.36
17 11:53 NW 12 2.00 Thunderstorm Heavy Rain FEW021 BKN028 OVC039 82 75.9 82% 89 30.04 1017.2 0.16
17 10:53 S 5 10.00 Mostly Cloudy FEW028 SCT040 BKN050 89.1 77 68% 102 30.04 1017.0
17 09:53 Calm 10.00 A Few Clouds FEW025 87.1 78.1 75% 100 30.03 1016.9
17 08:53 Calm 10.00 Fair CLR 84.9 78.1 80% 97 30.05 1017.4
17 07:53 Calm 10.00 Fair CLR 80.1 75.9 87% 85 30.04 1017.2
17 05:53 Calm 10.00 Fair CLR 79 75 88% 83 30 1015.7
17 04:53 Calm 9.00 Fair CLR 79 75.9 90% 83 29.98 1015.3
17 03:53 Calm 8.00 Fair CLR 78.1 75 90% 81 29.97 1015.0
17 02:53 Calm 10.00 Fair CLR 80.1 75.9 87% 85 29.98 0.0
17 01:53 Calm 10.00 Fair CLR 80.1 75.9 87% 85 29.98 1015.2
17 00:53 Calm 10.00 Fair CLR 81 75 91 80.1 82% 87 29.98 1015.3
16 23:53 Calm 10.00 Fair CLR 81 77 88% 88 29.99 1015.5
16 22:53 Calm 10.00 Fair CLR 82.9 77 82% 92 29.99 1015.6
16 21:53 S 3 10.00 Fair CLR 84 75 74% 92 29.98 1015.2
16 20:53 S 3 10.00 Fair CLR 84.9 75 72% 93 29.97 1014.8
16 19:53 SE 5 10.00 Fair CLR 88 75 66% 98 29.97 1014.7
16 18:53 Vrbl 3 10.00 Fair CLR 90 75.9 93 77 63% 102 29.97 1014.7 0.34
16 17:53 Vrbl 5 10.00 Fair CLR 89.1 75.9 65% 100 29.97 1014.7
16 16:53 E 3 10.00 Fair CLR 86 73.9 67% 94 29.98 1015.1
16 15:53 Calm 10.00 Thunderstorm in Vicinity FEW070 SCT095 BKN110 80.1 75 85% 85 30 1015.7 0.34 0.34
16 13:53 E 3 10.00 Mostly Cloudy BKN039 BKN055 91 75.9 61% 103 30 1015.7
16 12:53 Vrbl 3 10.00 Fair CLR 91.9 75 91.9 79 58% 103 30.02 1016.4
16 11:53 SW 6 10.00 Mostly Cloudy BKN035 90 73.9 59% 99 30.02 1016.6
Date Time (cdt) Wind (mph) Vis. (mi.) Weather Sky Cond. Air Dwpt Max. Min. Relative Humidity Wind Chill (°F) Heat Index (°F) altimeter (in) sea level (mb) 1 hr 3 hr 6 hr
6 hour
Temperature (ºF) Pressure Precipitation (in)